[[{"header":{"parameterUnit":"m.s-1","parameterCategory":1,"la1":30.2991,"la2":30.254,"lo1":-89.0895,"lo2":-89.0444,"dy":0.0017,"dx":0.0017,"nx":28,"ny":28,"refTime":"2024-03-14T03:00:00:Z","depth":0,"parameterNumber":2,"parameterNumberName":"U-component_of_WINDS"},"data":[0,0,0,0,0,0,0,0,0,0,0,0,0,0,0,0,0,0,0,0,0,0,0,0,0,0,0,0,0,0,0,0,0,0,0,0,0,0,0,0,0,0,0,0,0,0,0,0,0,0,0,0,0,0,0,0,0,0,-3.0653,-3.0653,0,-3.0646,-3.0646,-3.0646,-3.0579,-3.0577,-3.0576,-3.0574,-3.0567,-3.0569,-3.057,0,0,0,0,0,0,0,0,0,0,0,0,0,-3.0608,-3.061,-3.0653,-3.0653,-3.0653,-3.0646,-3.0646,-3.0646,-3.0579,-3.0577,-3.0575,-3.0573,-3.0567,-3.0568,-3.057,0,0,0,0,0,0,0,0,0,0,0,0,0,-3.0617,-3.061,-3.0653,-3.0619,-3.0616,-3.0646,-3.0646,-3.0646,-3.058,-3.0577,-3.0575,-3.0572,-3.0566,-3.0568,-3.057,-3.0634,0,0,-3.0577,-3.0578,0,0,0,0,0,0,0,0,-3.0617,-3.0619,-3.0624,-3.0621,-3.0618,-3.0611,-3.0628,-3.0642,-3.058,-3.0593,-3.0574,-3.0571,-3.0584,-3.0584,-3.0589,-3.0633,-3.0633,-3.0577,-3.0578,-3.0579,-3.058,0,0,0,0,0,0,0,-3.0616,-3.0619,-3.065,-3.0624,-3.062,-3.0604,-3.0602,-3.063,-3.0603,-3.0592,-3.0587,-3.0587,-3.0582,-3.0587,-3.0588,-3.0633,-3.0577,-3.0579,-3.058,-3.0581,-3.0729,-3.0732,0,0,0,0,0,0,-3.0621,-3.0619,-3.0651,-3.065,-3.0611,-3.0607,-3.0605,-3.0616,-3.0602,-3.0598,-3.0589,-3.0584,-3.0584,-3.0586,-3.0587,-3.066,-3.0579,-3.0581,-3.0582,-3.0727,-3.073,-3.0733,0,0,0,0,0,0,-3.062,-3.0624,-3.0651,-3.0633,-3.0635,-3.061,-3.0623,-3.0617,-3.0622,-3.06,-3.0595,-3.06,-3.0582,-3.0585,-3.0623,-3.0659,-3.0582,-3.0584,-3.0723,-3.0728,-3.0731,-3.0807,0,0,0,0,0,0,-3.0619,-3.0624,-3.0648,-3.0634,-3.0637,-3.0686,-3.0625,-3.0619,-3.0626,-3.0619,-3.0608,-3.0604,-3.0581,-3.062,-3.0625,-3.066,-3.0585,-3.072,-3.0725,-3.073,-3.0801,-3.0813,-3.0823,0,0,0,0,0,-3.0618,-3.0669,-3.0649,-3.0654,-3.0666,-3.0688,-3.069,-3.0661,-3.0629,-3.0652,-3.0639,-3.0605,-3.0655,-3.0624,-3.0629,-3.0666,-3.0718,-3.0724,-3.073,-3.0796,-3.081,-3.0823,0,0,0,0,0,0,-3.0688,-3.0667,-3.0644,-3.0694,-3.0693,-3.0677,-3.0706,-3.0678,-3.0687,-3.068,-3.0644,-3.0643,-3.0686,-3.068,-3.0647,-3.0727,-3.068,-3.0688,-3.0729,-3.0743,-3.0753,-3.0753,-3.0587,0,0,0,0,0,-3.0709,-3.0729,-3.071,-3.0755,-3.0756,-3.0731,-3.074,-3.0718,-3.0717,-3.0716,-3.0705,-3.0705,-3.072,-3.0731,-3.0744,-3.08,-3.0797,-3.0828,-3.0839,-3.0848,-3.0855,-3.0883,-3.0897,-3.0753,-3.0753,-3.0753,0,0,-3.0753,-3.0744,-3.0759,-3.0769,-3.0766,-3.0788,-3.0732,-3.0757,-3.0773,-3.072,-3.0755,-3.0747,-3.0745,-3.0792,-3.0812,-3.0788,-3.0894,-3.0856,-3.0864,-3.0865,-3.0891,-3.0905,-3.0917,-3.0757,-3.0756,-3.0755,0,0,-3.0844,-3.084,-3.0876,-3.0875,-3.0871,-3.0855,-3.0864,-3.0852,-3.0845,-3.0879,-3.084,-3.0859,-3.0886,-3.0886,-3.0889,-3.0981,-3.095,-3.0987,-3.1044,-3.1073,-3.1084,-3.1094,-3.1126,-3.1138,-3.0994,-3.0994,-3.0994,0,-3.0899,-3.0929,-3.0899,-3.0927,-3.0932,-3.0886,-3.0923,-3.0923,-3.0925,-3.0929,-3.0903,-3.0936,-3.0932,-3.0978,-3.1,-3.1005,-3.1014,-3.0987,-3.1085,-3.1095,-3.1103,-3.1133,-3.1146,-3.0998,-3.0998,-3.0997,-3.0997,0,-3.0997,-3.1019,-3.1049,-3.1051,-3.1061,-3.1093,-3.1067,-3.108,-3.1058,-3.1045,-3.1081,-3.1073,-3.1084,-3.1094,-3.1072,-3.1137,-3.1122,-3.1091,-3.1043,-3.1122,-3.115,-3.1161,-3.1004,-3.1003,-3.1001,-3.1,0,0,-3.113,-3.1116,-3.1127,-3.1128,-3.1121,-3.1137,-3.1168,-3.1179,-3.119,-3.1193,-3.1218,-3.1243,-3.1214,-3.1218,-3.1196,-3.1221,-3.1294,-3.1187,-3.1186,-3.1206,-3.1364,-3.1387,-3.1401,-3.1274,-3.1276,-3.1278,-3.1364,0,-3.1217,-3.1268,-3.1241,-3.1296,-3.1316,-3.1273,-3.1299,-3.1298,-3.1287,-3.1302,-3.1289,-3.1307,-3.1268,-3.127,-3.1293,-3.128,-3.1325,-3.1274,-3.1296,-3.1297,-3.1296,-3.1415,-3.1439,-3.1521,-3.1375,-3.1376,-3.1378,0,-3.1324,-3.1331,-3.1388,-3.1377,-3.1385,-3.1409,-3.1417,-3.1432,-3.143,-3.142,-3.1425,-3.1398,-3.1427,-3.1381,-3.1421,-3.1387,-3.1395,-3.139,-3.1393,-3.1392,-3.1341,-3.1417,-3.1546,-3.1558,-3.1395,-3.1393,-3.1392,0,-3.1414,-3.1439,-3.1475,-3.1477,-3.1466,-3.1484,-3.1481,-3.1477,-3.1485,-3.1492,-3.1496,-3.1507,-3.1513,-3.1522,-3.1498,-3.1467,-3.1541,-3.1493,-3.1533,-3.1534,-3.1549,-3.1548,-3.168,-3.1557,-3.1557,-3.1556,-3.1556,0,-3.1513,-3.1549,-3.1516,-3.1538,-3.1577,-3.1547,-3.1587,-3.1579,-3.1575,-3.1596,-3.156,-3.158,-3.1548,-3.1564,-3.1546,-3.1582,-3.1585,-3.1577,-3.1572,-3.158,-3.1581,-3.1583,-3.1576,-3.1559,-3.1559,-3.1558,-3.1558,0,-3.162,-3.1599,-3.1636,-3.1623,-3.1621,-3.165,-3.1639,-3.1659,-3.1646,-3.1672,-3.1676,-3.1655,-3.1673,-3.165,-3.1666,-3.1654,-3.1702,-3.1689,-3.1703,-3.1698,-3.1739,-3.1735,-3.1876,-3.1893,-3.176,-3.1761,-3.1763,0,-3.1683,-3.171,-3.17,-3.1711,-3.1709,-3.1728,-3.1736,-3.1708,-3.1718,-3.1718,-3.1738,-3.1753,-3.1763,-3.1794,-3.178,-3.1792,-3.1778,-3.1827,-3.178,-3.1787,-3.1778,-3.1776,-3.1778,-3.1836,-3.1838,-3.1839,-3.184,0,-3.1798,-3.1787,-3.1799,-3.1809,-3.182,-3.1827,-3.183,-3.1841,-3.1812,-3.1825,-3.1843,-3.1851,-3.1868,-3.1883,-3.1891,-3.1887,-3.1859,-3.1855,-3.1865,-3.1872,-3.1879,-3.1875,-3.1728,-3.1852,-3.185,-3.185,-3.1849,-3.1849,-3.1884,-3.1906,-3.1902,-3.1918,-3.1918,-3.1922,-3.1941,-3.193,-3.1944,-3.1955,-3.1938,-3.196,-3.1958,-3.1966,-3.1966,-3.1983,-3.1962,-3.1977,-3.198,-3.1983,-3.1989,-3.1878,-3.1985,-3.1985,-3.1984,-3.1984,-3.1984,0,-3.1996,-3.1992,-3.2007,-3.2013,-3.2026,-3.1998,-3.2001,-3.2013,-3.2033,-3.2034,-3.2045,-3.2066,-3.208,-3.2068,-3.208,-3.2096,-3.2084,-3.21,-3.2098,-3.2098,-3.2008,-3.1998,-3.2111,-3.2111,-3.2111,-3.211,-3.211,-3.211,-3.2055,-3.209,-3.2079,-3.2113,-3.2109,-3.213,-3.2134,-3.2138,-3.2138,-3.2163,-3.2175,-3.2167,-3.2162,-3.2174,-3.2187,-3.2182,-3.2188,-3.221,-3.2201,-3.2117,-3.2104,-3.2092,-3.2082,-3.2211,-3.2211,-3.2289,-3.229,-3.229]},{"header":{"parameterUnit":"m.s-1","parameterCategory":1,"la1":30.2991,"la2":30.254,"lo1":-89.0895,"lo2":-89.0444,"dy":0.0017,"dx":0.0017,"nx":28,"ny":28,"refTime":"2024-03-14T03:00:00:Z","depth":0,"parameterNumber":3,"parameterNumberName":"V-component_of_WINDS"},"data":[0,0,0,0,0,0,0,0,0,0,0,0,0,0,0,0,0,0,0,0,0,0,0,0,0,0,0,0,0,0,0,0,0,0,0,0,0,0,0,0,0,0,0,0,0,0,0,0,0,0,0,0,0,0,0,0,0,0,0.9483,0.9483,0,0.9486,0.9486,0.9486,0.9464,0.9464,0.9463,0.9462,0.9463,0.9464,0.9464,0,0,0,0,0,0,0,0,0,0,0,0,0,0.9459,0.946,0.9483,0.9483,0.9483,0.9486,0.9486,0.9486,0.9464,0.9464,0.9463,0.9462,0.9463,0.9464,0.9464,0,0,0,0,0,0,0,0,0,0,0,0,0,0.9466,0.946,0.9483,0.9473,0.9472,0.9486,0.9486,0.9486,0.9464,0.9464,0.9463,0.9462,0.9463,0.9464,0.9465,0.9488,0,0,0.9467,0.9468,0,0,0,0,0,0,0,0,0.9466,0.9467,0.9474,0.9474,0.9473,0.9474,0.9477,0.9486,0.9465,0.9467,0.9462,0.9461,0.9467,0.9468,0.947,0.9488,0.9488,0.9467,0.9468,0.9468,0.9468,0,0,0,0,0,0,0,0.9465,0.9467,0.9484,0.9474,0.9473,0.9468,0.9468,0.9479,0.9472,0.9467,0.9465,0.9466,0.9467,0.9469,0.947,0.9488,0.9467,0.9468,0.9469,0.9469,0.9527,0.9528,0,0,0,0,0,0,0.9467,0.9467,0.9484,0.9484,0.9467,0.9469,0.9469,0.9474,0.9472,0.9471,0.9467,0.9465,0.9468,0.9469,0.947,0.9499,0.9468,0.9469,0.9469,0.9526,0.9527,0.9528,0,0,0,0,0,0,0.9466,0.9468,0.9484,0.9475,0.9477,0.947,0.9476,0.9475,0.9477,0.9472,0.947,0.9471,0.9468,0.9469,0.9484,0.9498,0.9469,0.947,0.9525,0.9526,0.9528,0.9556,0,0,0,0,0,0,0.9465,0.9468,0.9477,0.9475,0.9477,0.9498,0.9477,0.9475,0.9479,0.9477,0.9475,0.9474,0.9467,0.9483,0.9485,0.9499,0.9471,0.9523,0.9525,0.9527,0.9553,0.9558,0.9562,0,0,0,0,0,0.9465,0.9484,0.9478,0.948,0.9488,0.9499,0.95,0.9492,0.948,0.9489,0.9486,0.9474,0.9496,0.9485,0.9487,0.9501,0.9522,0.9525,0.9527,0.9552,0.9557,0.9562,0,0,0,0,0,0,0.9486,0.9483,0.9476,0.9496,0.9498,0.9495,0.9506,0.9498,0.9503,0.95,0.9489,0.9489,0.9507,0.9505,0.9492,0.9525,0.9507,0.951,0.9525,0.9531,0.9535,0.9535,0.9471,0,0,0,0,0,0.9493,0.9503,0.95,0.9517,0.9519,0.9513,0.9517,0.9511,0.9512,0.9513,0.951,0.9512,0.952,0.9525,0.9531,0.9553,0.9553,0.9564,0.9568,0.9572,0.9575,0.9588,0.9594,0.9536,0.9536,0.9536,0,0,0.9508,0.9508,0.9514,0.9521,0.9522,0.9533,0.9513,0.9524,0.9532,0.9514,0.9529,0.9528,0.9529,0.9548,0.9557,0.9548,0.9591,0.9575,0.9577,0.9578,0.9591,0.9597,0.9601,0.9537,0.9537,0.9537,0,0,0.954,0.954,0.9556,0.9558,0.956,0.9556,0.956,0.9559,0.9558,0.9573,0.956,0.9569,0.9582,0.9584,0.9586,0.9621,0.9612,0.9624,0.9646,0.9659,0.9664,0.9668,0.9682,0.9688,0.9626,0.9626,0.9626,0,0.9558,0.9574,0.9565,0.9578,0.9582,0.9567,0.9584,0.9585,0.9589,0.9593,0.9583,0.96,0.9599,0.962,0.9629,0.9631,0.9635,0.9624,0.9664,0.9668,0.9672,0.9685,0.9691,0.9628,0.9628,0.9628,0.9628,0,0.9597,0.9608,0.962,0.9626,0.9631,0.9645,0.9639,0.9646,0.9639,0.9636,0.9653,0.9652,0.9659,0.9663,0.9656,0.9683,0.9678,0.9666,0.9648,0.9679,0.9692,0.9697,0.963,0.963,0.9629,0.9629,0,0,0.9643,0.9645,0.965,0.9653,0.9655,0.9663,0.9677,0.9685,0.9692,0.9695,0.9707,0.9719,0.9709,0.9712,0.9705,0.9717,0.9747,0.9704,0.9704,0.9714,0.978,0.979,0.9796,0.974,0.9741,0.9742,0.978,0,0.9676,0.9701,0.9695,0.972,0.9731,0.9717,0.973,0.9733,0.973,0.9739,0.9736,0.9746,0.9731,0.9733,0.9744,0.9741,0.9761,0.9738,0.9752,0.9753,0.9755,0.9802,0.9813,0.9849,0.9785,0.9786,0.9786,0,0.9718,0.9725,0.9752,0.9754,0.9759,0.977,0.9778,0.9786,0.9789,0.9787,0.9792,0.9783,0.9797,0.9779,0.9799,0.9784,0.9789,0.9789,0.979,0.9793,0.9773,0.9808,0.986,0.9867,0.9794,0.9793,0.9792,0,0.9752,0.9768,0.9786,0.9789,0.9792,0.9801,0.9802,0.9804,0.981,0.9816,0.982,0.9828,0.9832,0.9838,0.9832,0.9819,0.9854,0.9835,0.9854,0.9854,0.9863,0.9863,0.9919,0.9863,0.9863,0.9863,0.9863,0,0.9791,0.9809,0.9802,0.9814,0.9833,0.9825,0.9844,0.9844,0.9846,0.9858,0.9846,0.9857,0.9847,0.9857,0.9852,0.9871,0.9873,0.9872,0.9871,0.9874,0.9875,0.9879,0.9877,0.9864,0.9864,0.9864,0.9864,0,0.9833,0.9829,0.9849,0.985,0.9851,0.9865,0.9866,0.9877,0.9874,0.9889,0.9892,0.9888,0.99,0.9894,0.9905,0.9902,0.9927,0.9921,0.9927,0.9926,0.9946,0.9945,1.0009,1.0018,0.9954,0.9955,0.9955,0,0.9859,0.9872,0.9876,0.9883,0.9886,0.9897,0.9904,0.9896,0.9904,0.9909,0.992,0.9931,0.9939,0.9959,0.9956,0.9966,0.9961,0.9983,0.9963,0.9967,0.9964,0.9965,0.9967,0.9988,0.9988,0.9989,0.9989,0,0.9907,0.9904,0.9914,0.9925,0.9933,0.994,0.9946,0.9953,0.9946,0.9954,0.9967,0.9974,0.9987,0.9998,1.0006,1.0007,0.9998,0.9996,1.0001,1.0006,1.0009,1.001,0.994,0.9995,0.9994,0.9994,0.9993,0.9993,0.9943,0.9955,0.996,0.9972,0.9976,0.9983,0.9994,0.9993,1.0004,1.0015,1.0009,1.0024,1.0028,1.0039,1.0041,1.0053,1.0045,1.0052,1.0054,1.0056,1.006,1.0006,1.0054,1.0054,1.0054,1.0054,1.0054,0,0.9992,0.9994,1.0006,1.0016,1.0026,1.0016,1.0023,1.0032,1.0045,1.005,1.0059,1.0075,1.0086,1.0085,1.0096,1.0106,1.0102,1.0109,1.0109,1.011,1.0066,1.0061,1.0112,1.0112,1.0112,1.0112,1.0112,1.0112,1.0018,1.0039,1.0038,1.0061,1.0064,1.0079,1.0084,1.0091,1.0095,1.0113,1.0123,1.0122,1.0125,1.0136,1.0147,1.0146,1.0152,1.0161,1.0159,1.0118,1.0113,1.0107,1.0103,1.0162,1.0162,1.0202,1.0203,1.0203]}]]